Regional Weather Roundup
Issued by NWS

Home | Current Version | Previous Version | Text Only | Print | Product List | Glossary Off
Versions: 1 2 3 4 5 6 7 8 9 10 11 12 13 14 15 16 17 18 19 20 21 22 23 24 25 26 27

000
ASUS45 KBOU 241107
RWRCO

WEATHER ROUNDUP FOR COLORADO
NATIONAL WEATHER SERVICE DENVER/BOULDER CO
400 AM MST TUE JAN 24 2017

NOTE: "FAIR" INDICATES FEW OR NO CLOUDS BELOW 12000 FEET WITH NO
SIGNIFICANT WEATHER AND/OR OBSTRUCTIONS TO VISIBILITY.

COZ001>005-013-030-031-241200-
...NORTHWEST COLORADO...

CITY           SKY/WX    TMP DP  RH WIND       PRES   REMARKS
CRAIG          CLOUDY    27  19  72 SW8       29.53S WCI  19
HAYDEN         MOCLDY    23  16  74 CALM      29.52S
MEEKER         MOCLDY    25  18  74 CALM      29.52F
MOUNT WERNER   NOT AVBL
STEAMBOAT SPGS MOCLDY    19  16  89 N3        29.52R
WALDEN           N/A     10   5  79 E8        29.49F WCI  -1
$$

COZ006>008-011-241200-
...WEST CENTRAL VALLEYS...

CITY           SKY/WX    TMP DP  RH WIND       PRES   REMARKS
GRAND JUNCTION CLOUDY    29  28  96 NW5       29.57R WCI  24
MONTROSE       MOCLDY    29  23  78 CALM      29.58R
EAGLE          FAIR      16  13  88 E8        29.56F WCI   5
RIFLE          CLOUDY    26  26 100 W3        29.55S
DELTA          FAIR      32  27  82 SW5       29.57S WCI  27
NUCLA          CLOUDY    28  27  93 CALM      29.61S
$$

COZ017>023-064>068-241200-
...SOUTHWEST COLORADO...

CITY           SKY/WX    TMP DP  RH WIND       PRES   REMARKS
DURANGO        LGT SNOW  21  18  88 N6        29.56F FOG     WCI  13
CORTEZ         MOCLDY    23  22  96 E3        29.59F
PAGOSA SPRINGS LGT SNOW  24  23  99 CALM      29.55F
TELLURIDE      LGT SNOW  18  16  91 CALM      29.54S
WOLF CREEK PAS CLOUDY     9   9 100 SW13G21   29.51F WCI  -7
$$

COZ009-010-012-014-032>034-037-058>063-241200-
...CENTRAL COLORADO...

CITY           SKY/WX    TMP DP  RH WIND       PRES   REMARKS
ASPEN          CLOUDY    16  12  84 S8        29.50F WCI   5
BUENA VISTA    FAIR       7   3  83 NW3       29.51F
COPPER MTN     MOCLDY    10   3  72 MISG      29.45R
BERTHOUD PASS  CLOUDY     3  -8  60 MISG      29.43R
COTTONWOOD PAS FAIR      19   7  58 W12       29.48F WCI   7
GUNNISON       MOCLDY    10   7  87 SE5       29.55S WCI   2
KREMMLING      FAIR      18  10  73 SE3       29.54S
LEADVILLE      MOCLDY     3  -1  83 E7        29.46S WCI  -9
MONARCH PASS   CLOUDY     9   3  78 CALM      29.56S
SALIDA         FAIR      23  13  63 W7        29.58F WCI  15
SUNLIGHT         N/A     10   9  92 SW6       29.51F WCI   1
WILKERSON PASS MOCLDY   N/A N/A N/A CALM      29.49S
$$

COZ069>075-241200-
...SAN LUIS VALLEY/SANGRE DE CRISTO MOUNTAINS...

CITY           SKY/WX    TMP DP  RH WIND       PRES   REMARKS
ALAMOSA        FAIR      21  20  96 NE6       29.51F WCI  13
LA VETA PASS   LGT SNOW  21  18  86 NE7       29.50S WCI  13
SAGUACHE       MOCLDY    18  12  79 CALM      29.53S
$$

COZ035-036-038>040-241200-
...NORTHERN COLORADO FRONT RANGE...

CITY           SKY/WX    TMP DP  RH WIND       PRES   REMARKS
DENVER INTL AP CLOUDY    31  26  82 N7        29.48F WCI  24
DMNS CITY PARK   N/A     33  27  80 MISG      29.49F
AURORA         CLOUDY    29  29  99 NW3       29.48F
FRONT RANGE AP CLOUDY    32  30  93 NW8       29.49F WCI  25
ERIE MUNI ARPT FAIR      25  24  98 CALM      29.49S
BOULDER MUN AP FAIR      28  28 100 CALM      29.49S
CENTENNIAL     FAIR      28  26  92 CALM      29.49R
BROOMFIELD     FAIR      28  27  93 CALM      29.48F
FORT COLLINS   MOCLDY    23  22  96 CALM      29.51S
LONGMONT       FAIR      27  25  93 CALM      29.52S
$$

COZ041-046-047-076>085-087-088-241200-
...PIKES PEAK/PALMER DIVIDE AND SOUTHERN FOOTHILLS...

CITY           SKY/WX    TMP DP  RH WIND       PRES   REMARKS
COLO. SPRINGS  MOCLDY    31  21  66 W6        29.46S WCI  25
A. F. ACADEMY  FAIR      25  19  79 N7        29.45F WCI  17
SCHRIEVER AFB  FAIR      30  24  79 N7        29.46  WCI  23
ELLICOTT       FAIR     N/A N/A N/A N6        29.45R
FALCON         FAIR      27  19  72 NW7       29.46F WCI  19
FORT CARSON    FAIR      30  21  69 N6        29.45S WCI  24
LIMON          FAIR      29  26  89 NW10      29.46S WCI  20
MONUMENT HILL  FAIR      23  21  93 SW3       29.49R
TRINIDAD       MOCLDY    36  27  69 VRB3      29.50F
$$

COZ042>045-048>051-090-091-241200-
...NORTHEAST COLORADO...

CITY           SKY/WX    TMP DP  RH WIND       PRES   REMARKS
GREELEY ARPT   FAIR      29  27  92 N8        29.51F WCI  21
AKRON          FOG       29  28  96 NE16      29.46S VSB 3/4 WCI  17
BURLINGTON     FAIR      31  28  89 NW14      29.43S WCI  21
WRAY           FOG      N/A N/A N/A N7        29.49  VSB 1/2
STERLING       CLOUDY    32  30  93 NE14      29.49F WCI  22
HOLYOKE        CLOUDY    34  32  93 N13       29.51F FOG     WCI  25
FORT MORGAN    MOCLDY    32  30  93 N12       29.50R WCI  23
$$

COZ086-089-092>099-241200-
...SOUTHEAST COLORADO...

CITY           SKY/WX    TMP DP  RH WIND       PRES   REMARKS
PUEBLO         FAIR      39  22  50 W6        29.46F
LA JUNTA       CLOUDY    37  31  78 W12       29.46F
LAMAR          MOCLDY    39  31  72 W14       29.43S
SPRINGFIELD      N/A     32  28  85 SW10      29.45R WCI  24
$$




USA.gov is the U.S. government's official web portal to all federal, state and local government web resources and services.